EW6887 Weather Reports


Display with metric or nautical units.
time (UTC)temp
F
wind
direction
speed
MPH
gust
MPH
rain 1hr
in
rain 24hr
in
rain mn
in
humidity
%
barometer
mb
20260905160054 68 190 0.0 0.0 0.00 0.00 0.00 49 1016.9
20260905154547 69 157 0.0 0.0 0.00 0.00 0.00 49 1016.7
20260905153039 70 195 0.0 0.0 0.00 0.00 0.00 47 1016.7
20260905151531 70 32 0.0 0.0 0.00 0.00 0.00 46 1016.6
20260905150025 71 211 0.0 0.0 0.00 0.00 0.00 46 1016.5
20260905144524 71 360 0.0 0.0 0.00 0.00 0.00 47 1016.5
20260905143012 71 290 0.0 0.0 0.00 0.00 0.00 47 1016.5
20260905141502 71 69 0.0 0.0 0.00 0.00 0.00 47 1016.4
20260905140059 71 165 0.0 0.0 0.00 0.00 0.00 48 1016.4
20260905134555 68 58 0.0 0.0 0.00 0.00 0.00 52 1016.5
20260905133045 69 163 0.0 0.0 0.00 0.00 0.00 51 1016.6
20260905131536 72 195 0.0 0.0 0.00 0.00 0.00 48 1016.6
20260905130030 71 109 0.0 0.0 0.00 0.00 0.00 49 1016.7
20260905124522 70 103 0.0 0.0 0.00 0.00 0.00 50 1016.8
20260905123114 70 62 0.0 0.0 0.00 0.00 0.00 50 1017.0
20260905121505 69 64 0.0 0.0 0.00 0.00 0.00 49 1017.1
20260905120101 71 62 0.0 0.0 0.00 0.00 0.00 49 1017.2
20260905114601 69 28 0.0 0.0 0.00 0.00 0.00 54 1017.1
20260905113050 68 109 0.0 0.0 0.00 0.00 0.00 55 1017.1
20260905111514 67 101 0.0 0.0 0.00 0.00 0.00 60 1017.0
20260905110008 68 155 0.0 0.0 0.00 0.00 0.00 62 1017.1
20260905104603 68 209 0.0 0.0 0.00 0.00 0.00 62 1016.9
20260905103104 69 30 0.0 0.0 0.00 0.00 0.00 60 1016.9
20260905101606 67 98 0.0 0.0 0.00 0.00 0.00 63 1016.8
20260905100121 67 144 0.0 0.0 0.00 0.00 0.00 64 1016.8
20260905094551 66 360 0.0 0.0 0.00 0.00 0.00 67 1016.9
20260905093042 67 57 0.0 0.0 0.00 0.00 0.00 69 1017.1
20260905091542 65 181 0.0 0.0 0.00 0.00 0.00 73 1017.0
20260905090026 64 84 0.0 0.0 0.00 0.00 0.00 77 1017.0
20260905084519 65 71 0.0 0.0 0.00 0.00 0.00 78 1016.9
20260905083010 63 109 0.0 0.0 0.00 0.00 0.00 80 1016.8
20260905081502 63 91 0.0 0.0 0.00 0.00 0.00 81 1016.6
20260905080059 61 67 0.0 0.0 0.00 0.00 0.00 84 1016.5
20260905074559 60 75 0.0 0.0 0.00 0.00 0.00 85 1016.5
20260905073050 60 50 0.0 0.0 0.00 0.00 0.00 86 1016.4
20260905071544 59 5 0.0 0.0 0.00 0.00 0.00 88 1016.3
20260905070036 59 98 0.0 0.0 0.00 0.00 0.00 89 1016.3
20260905064529 58 71 0.0 0.0 0.00 0.00 0.00 91 1016.2
20260905063018 57 101 0.0 0.0 0.00 0.00 0.00 91 1016.1
20260905061511 57 98 0.0 0.0 0.00 0.00 0.00 91 1016.1
20260905060004 57 100 0.0 0.0 0.00 0.00 0.00 91 1016.0
20260905054708 57 96 0.0 0.0 0.00 0.00 0.00 91 1015.8
20260905053021 57 107 0.0 0.0 0.00 0.00 0.00 90 1015.5
20260905051513 57 105 0.0 0.0 0.00 0.00 0.00 91 1015.4
20260905050100 58 75 0.0 0.0 0.00 0.00 0.00 91 1015.0
20260905044607 58 94 0.0 0.0 0.00 0.00 0.00 91 1014.6
20260905043045 59 55 0.0 0.0 0.00 0.00 0.00 91 1014.3
20260905041539 60 161 0.0 0.0 0.00 0.00 0.00 90 1015.0
20260905040026 60 67 0.0 0.0 0.00 0.00 0.00 89 1014.5
20260905034518 60 54 0.0 0.0 0.00 0.00 0.00 88 1014.7
20260905033013 61 95 0.0 0.0 0.00 0.00 0.00 86 1014.3
20260905031600 61 95 0.0 0.0 0.00 0.00 0.00 85 1014.0
20260905030047 61 95 0.0 0.0 0.00 0.00 0.00 84 1014.0
20260905024553 61 94 0.0 0.0 0.00 0.00 0.00 82 1013.8
20260905023033 61 109 0.0 0.0 0.00 0.00 0.00 82 1013.3
20260905021525 62 80 0.0 0.0 0.00 0.00 0.00 81 1013.7
20260905020017 63 121 0.0 0.0 0.00 0.00 0.00 79 1013.2
20260905014507 63 80 0.0 0.0 0.00 0.00 0.00 78 1013.3
20260905013104 64 52 0.0 0.0 0.00 0.00 0.00 77 1013.2
20260905011657 64 92 0.0 0.0 0.00 0.00 0.00 76 1013.1
20260905010100 65 185 0.0 0.0 0.00 0.00 0.00 75 1012.9
20260905004543 66 207 0.0 0.0 0.00 0.00 0.00 73 1012.7
20260905003036 66 165 0.0 0.0 0.00 0.00 0.00 71 1012.6
20260905001626 67 206 0.0 0.0 0.00 0.00 0.00 70 1012.5
20260905000058 67 175 0.0 0.0 0.00 0.00 0.00 68 1012.0
20260904234551 67 172 0.0 0.0 0.00 0.00 0.00 69 1011.3
20260904233041 66 140 0.0 0.0 0.00 0.00 0.00 71 1011.2
20260904231545 66 210 0.0 0.0 0.00 0.00 0.00 71 1011.0
20260904230024 67 195 0.0 0.0 0.00 0.00 0.00 72 1010.5
20260904224513 68 189 0.0 0.0 0.00 0.00 0.00 76 1009.7
20260904223002 68 190 0.0 0.0 0.00 0.00 0.00 74 1009.2
20260904221604 69 190 0.0 0.0 0.00 0.00 0.00 72 1009.3
20260904220047 70 190 0.0 0.0 0.00 0.00 0.00 69 1009.1
20260904214532 72 190 0.0 0.0 0.00 0.00 0.00 66 1008.9
20260904213024 72 190 0.0 0.0 0.00 0.00 0.00 64 1008.8
20260904211516 73 190 0.0 0.0 0.00 0.00 0.00 63 1008.8
20260904210011 73 41 0.0 0.0 0.00 0.00 0.00 62 1008.5
20260904204559 74 40 0.0 0.0 0.00 0.00 0.00 61 1008.4
20260904203059 74 50 0.0 0.0 0.00 0.00 0.00 61 1008.4
20260904201550 74 40 0.0 0.0 0.00 0.00 0.00 61 1008.6
20260904200056 74 64 0.0 0.0 0.00 0.00 0.00 61 1008.7
20260904194533 75 41 0.0 0.0 0.00 0.00 0.00 61 1008.8
20260904193122 75 49 0.0 0.0 0.00 0.00 0.00 61 1008.9
20260904191512 76 53 0.0 0.0 0.00 0.00 0.00 60 1008.9
20260904190005 76 53 0.0 0.0 0.00 0.00 0.00 59 1008.9
20260904184611 76 63 0.0 0.0 0.00 0.00 0.00 59 1009.0
20260904183056 76 67 0.0 0.0 0.00 0.00 0.00 59 1009.1
20260904181548 76 69 0.0 0.0 0.00 0.00 0.00 59 1009.1
20260904180047 77 82 0.0 0.0 0.00 0.00 0.00 58 1009.1
20260904174531 77 92 0.0 0.0 0.00 0.00 0.00 58 1009.0
20260904173025 77 94 0.0 0.0 0.00 0.00 0.00 57 1009.1
20260904171515 77 88 0.0 0.0 0.00 0.00 0.00 57 1009.3
20260904170007 78 104 0.0 0.0 0.00 0.00 0.00 56 1009.1
20260904164602 78 105 0.0 0.0 0.00 0.00 0.00 55 1009.0
20260904163058 78 77 0.0 0.0 0.00 0.00 0.00 55 1009.0
20260904161549 78 94 0.0 0.0 0.00 0.00 0.00 55 1009.1